Weather History for Fort Rucker / Ozark, AL

Change the Weather History Date:

Wednesday, November 6, 2013

  Actual Average (KDHN) Record (KDHN)
Temperature  
Mean Temperature 68 °F 61 °F  
Max Temperature 75 °F 74 °F 86 °F (1938)
Min Temperature 60 °F 49 °F 30 °F (1962)
Degree Days  
Heating Degree Days 0 5  
Month to date heating degree days 29  
Since 1 July heating degree days 88  
Cooling Degree Days 2    
Growing Degree Days 18 (Base 50)    
Moisture  
Dew Point 59 °F    
Average Humidity 77    
Maximum Humidity 87    
Minimum Humidity 64    
Precipitation  
Precipitation 0.00 in 0.11 in 0.76 in (1951)
Month to date precipitation 0.53  
Year to date precipitation 45.92  
Sea Level Pressure  
Sea Level Pressure 30.15 in    
Wind  
Wind Speed 3 mph (ESE)    
Max Wind Speed 8 mph    
Max Gust Speed -    
Visibility 10 miles    
Events      
T = Trace of Precipitation, MM = Missing Value Source: NWS Daily Summary

Daily Weather History Graph

Daily Weather History Graph

Search for Another Location

Airport:

Trip Planner

Search our weather history database for the weather conditions in past years. The results will help you decide how hot, cold, wet, or windy it might be!

Date:

Astronomy

Nov. 06, 2013 Rise Set
Actual Time 6:03 AM CST 4:49 PM CST
Civil Twilight 5:37 AM CST 5:15 PM CST
Nautical Twilight 5:08 AM CST 5:44 PM CST
Astronomical Twilight 4:40 AM CST 6:12 PM CST
Moon 9:12 AM CST (11/6) 7:58 PM CST (11/6)
Length of Visible Light 11h 37m
Length of Day
10h 46m
Waxing Crescent, 14% of the Moon is Illuminated
Nov 6
Waxing Crescent
Nov 9
First Quarter
Nov 17
Full
Nov 25
Last Quarter
Dec 2
New

Hourly Weather History & Observations

Time (CST) Temp. Dew Point Humidity Pressure Visibility Wind Dir Wind Speed Gust Speed Precip Events Conditions
12:53 AM 60.1 °F 48.0 °F 64% 30.19 in 10.0 mi Variable 3.5 mph - N/A   Overcast
1:53 AM 60.1 °F 50.0 °F 69% 30.18 in 10.0 mi Calm Calm - N/A   Scattered Clouds
2:53 AM 60.1 °F 52.0 °F 75% 30.18 in 10.0 mi Calm Calm - N/A   Mostly Cloudy
3:11 AM 60.8 °F 53.6 °F 77% 30.18 in 10.0 mi Calm Calm - N/A   Mostly Cloudy
3:53 AM 60.1 °F 55.0 °F 83% 30.18 in 10.0 mi Variable 3.5 mph - N/A   Overcast
4:25 AM 60.8 °F 55.4 °F 82% 30.18 in 10.0 mi East 8.1 mph - N/A   Overcast
4:53 AM 61.0 °F 55.9 °F 83% 30.18 in 10.0 mi Variable 4.6 mph - N/A   Overcast
5:53 AM 61.0 °F 57.0 °F 87% 30.18 in 10.0 mi Variable 5.8 mph - N/A   Overcast
6:53 AM 62.1 °F 57.9 °F 86% 30.20 in 10.0 mi Variable 3.5 mph - N/A   Overcast
7:53 AM 62.1 °F 57.9 °F 86% 30.21 in 10.0 mi Variable 3.5 mph - N/A   Overcast
8:53 AM 64.0 °F 59.0 °F 84% 30.21 in 10.0 mi East 3.5 mph - N/A   Overcast
9:19 AM 64.4 °F 59.0 °F 83% 30.22 in 10.0 mi East 4.6 mph - N/A   Overcast
9:53 AM 68.0 °F 60.1 °F 76% 30.20 in 10.0 mi Variable 6.9 mph - N/A   Overcast
10:20 AM 71.6 °F 60.8 °F 69% 30.20 in 10.0 mi ESE 8.1 mph - N/A   Mostly Cloudy
10:53 AM 72.0 °F 60.1 °F 66% 30.19 in 10.0 mi SSE 5.8 mph - N/A   Scattered Clouds
11:53 AM 73.0 °F 61.0 °F 66% 30.15 in 10.0 mi South 5.8 mph - N/A   Clear
12:53 PM 73.9 °F 61.0 °F 64% 30.13 in 10.0 mi SE 5.8 mph - N/A   Mostly Cloudy
1:09 PM 73.4 °F 60.8 °F 65% 30.13 in 10.0 mi Variable 3.5 mph - N/A   Overcast
1:53 PM 73.9 °F 62.1 °F 66% 30.12 in 10.0 mi SSE 5.8 mph - N/A   Mostly Cloudy
2:53 PM 75.0 °F 62.1 °F 64% 30.10 in 10.0 mi SSE 3.5 mph - N/A   Overcast
3:53 PM 73.9 °F 62.1 °F 66% 30.10 in 10.0 mi ENE 3.5 mph - N/A   Partly Cloudy
4:53 PM 71.1 °F 64.0 °F 78% 30.10 in 10.0 mi Calm Calm - N/A   Overcast
5:53 PM 69.1 °F 64.0 °F 84% 30.11 in 10.0 mi NE 3.5 mph - N/A   Mostly Cloudy
6:53 PM 68.0 °F 64.0 °F 87% 30.11 in 10.0 mi Calm Calm - N/A   Overcast
7:53 PM 68.0 °F 62.1 °F 81% 30.11 in 10.0 mi Calm Calm - N/A   Scattered Clouds
8:53 PM 66.9 °F 62.1 °F 84% 30.10 in 10.0 mi Calm Calm - N/A   Clear
9:53 PM 64.9 °F 61.0 °F 87% 30.11 in 10.0 mi Calm Calm - N/A   Clear
10:53 PM 64.9 °F 61.0 °F 87% 30.09 in 10.0 mi Calm Calm - N/A   Clear
11:53 PM 64.0 °F 60.1 °F 87% 30.08 in 10.0 mi Calm Calm - N/A   Clear